HULIANWANG DIGUI-65 (65171 NORAD) Tracking and Keplerian Element Data

This shows tracking and keplerian element data for the satellite.

Feedback or suggestion? Click here.




ElementValue
Catalog65171
NameHULIANWANG DIGUI-65
Epoch Orbit1709
Epoch Day354.20245071
Epoch Year2025
RAAN312.4113
Inclination86.4889
Eccentricity0.0002094
Argument of Perigee81.8107
Mean Anonmoly278.3264
Mean Motion13.24415558
Decay Rate3.4E-07
L11 65171U 25174H 25354.20245071 .00000034 00000+0 45022-4 0 9992
L22 65171 86.4889 312.4113 0002094 81.8107 278.3264 13.24415558 17097



Live tracking and technical data element details for HULIANWANG DIGUI-65 (NORAD 65171). HULIANWANG DIGUI-65 can be tracked NOW for your location showing map with azimuth and elevation plus other details from your city location.







IsCatalogInMostPopularTable: catalog: 65171, numindb: 4
Update: records affected: 1



GetName: 65171 HULIANWANG DIGUI-65

Hit Count: updated at: Mon, 20 Apr 2026 10:21:16 GMT